Regional Weather Roundup
Issued by NWS

Home | Current Version | Previous Version | Graphics & Text | Print | Product List | Glossary On
Versions: 1 2 3 4 5 6 7 8 9 10 11 12 13 14 15 16 17 18 19 20 21 22 23 24 25 26 27 28 29 30 31 32 33 34 35 36 37 38 39 40 41 42 43 44 45 46 47 48 49 50
000
ASUS43 KMPX 281301
RWRMN
WEATHER ROUNDUP FOR MINNESOTA
NATIONAL WEATHER SERVICE TWIN CITIES/CHANHASSEN MN
700 AM CST WED JAN 28 2015


NOTE: "FAIR" INDICATES FEW OR NO CLOUDS BELOW 12,000 FEET WITH NO
SIGNIFICANT WEATHER AND/OR OBSTRUCTIONS TO VISIBILITY. N/A MEANS
CURRENT SKY AND/OR WEATHER CONDITIONS ARE NOT AVAILABLE.

MNZ060>063-068>070-281400-
   Twin Cities Metro

CITY           SKY/WX    TMP DP  RH WIND       PRES   REMARKS
TWIN CITIES    CLOUDY    29  25  85 SE15      30.01F WCI  18
ST PAUL        CLOUDY    28  25  88 SE12G25   30.03F WCI  18
CRYSTAL        CLOUDY    30  26  85 SE15      29.99F WCI  19
BLAINE         CLOUDY    30  28  93 SE13      30.00F WCI  20
LAKEVILLE      CLOUDY    27  27 100 SE12G17   30.00F FOG     WCI  16
EDEN PRAIRIE   CLOUDY    30  26  85 SE15      29.98F WCI  19
SOUTH ST PAUL  CLOUDY    29  26  87 SE12G18   30.02F WCI  19
LAKE ELMO      CLOUDY    28  27  93 SE13      30.03F WCI  18
$$
MNZ001>005-007-008-013>017-022>024-027-028-281400-
   Northwest Minnesota

CITY           SKY/WX    TMP DP  RH WIND       PRES   REMARKS
BEMIDJI        CLOUDY    30  28  94 SE9       29.86F WCI  22
HALLOCK        CLOUDY    32  30  93 E7        29.81F FOG     WCI  26
ROSEAU         CLOUDY    30  27  86 SE6       29.85F FOG     WCI  24
WARROAD        CLOUDY    30  27  86 E6        29.87F FOG     WCI  24
THIEF RVR FALL CLOUDY    34  30  86 SE7       29.82R WCI  28
CROOKSTON      CLOUDY    34  30  86 S9        29.82S WCI  26
FOSSTON        CLOUDY    30  28  93 SE9       29.81F WCI  22
DETROIT LAKES  CLOUDY    32  32 100 S14       29.83F WCI  22
MOORHEAD       CLOUDY    34  34 100 S20       29.81F WCI  22
PARK RAPIDS    CLOUDY    31  29  92 SE14      29.86F FOG     WCI  21
MAHNOMEN       CLOUDY    32  30  93 S9        29.82S WCI  24
$$
MNZ006-009>011-018-025>026-281400-
   North Central Minnesota

CITY           SKY/WX    TMP DP  RH WIND       PRES   REMARKS
BAUDETTE       CLOUDY    28  25  88 SE7       29.88S WCI  21
FLAG ISLAND    CLOUDY    28  27  93 E7        29.89S FOG     WCI  21
INTL FALLS     CLOUDY    27  23  85 SE8       29.92S WCI  19
WASKISH        CLOUDY    30  28  93 SE8       29.88F FOG     WCI  23
BIG FORK       CLOUDY    28  25  86 S6        29.92S WCI  22
LONGVILLE      CLOUDY    28  27  93 SE9       29.90F FOG     WCI  20
GRAND RAPIDS   CLOUDY    27  25  93 SE10      29.92F WCI  17
CRANE LAKE     CLOUDY    25  21  86 S3        29.97F
ORR            CLOUDY    25  21  86 SE8       29.92F WCI  16
COOK           CLOUDY    25  21  86 SE8       29.95F WCI  16
WALKER         CLOUDY    29  28  95 SE10      29.88F FOG     WCI  20
$$
MNZ012-019>021-037-281400-
   Northeast Minnesota

CITY           SKY/WX    TMP DP  RH WIND       PRES   REMARKS
DULUTH         CLOUDY    23  19  85 SE10      29.98F WCI  12
ELY            CLOUDY    25  21  86 S7        29.96F WCI  17
HIBBING        CLOUDY    25  21  85 SE10      29.95F WCI  15
EVELETH        CLOUDY    23  21  93 SE9       29.97F WCI  13
DULUTH HARBOR  CLOUDY    27  21  80 CALM      30.05F
TWO HARBORS    CLOUDY    27  21  80 S5        30.01F WCI  21
SILVER BAY     CLOUDY    27  23  86 SE3       30.01F
GRAND MARAIS     N/A     31  25  78 S9        30.07S WCI  23
G MARAIS ARPRT   N/A     25  19  80 S6        30.01S FOG     WCI  18
$$
MNZ029>031-032-039>041-046>048-054>057-064-281400-
   West Central Minnesota

CITY           SKY/WX    TMP DP  RH WIND       PRES   REMARKS
FERGUS FALLS   CLOUDY    32  30  93 S18       29.86F WCI  20
WHEATON        PTCLDY    28  28 100 SE14G21   29.83F WCI  17
MORRIS         CLOUDY    32  30  93 SE21G26   29.84S FOG     WCI  20
ALEXANDRIA     CLOUDY    31  29  92 S18       29.87S FOG     WCI  19
ELBOW LAKE     CLOUDY    32  30  94 SE18G25   29.83F WCI  20
WADENA         CLOUDY    30  28  93 SE10        N/A  FOG     WCI  21
GLENWOOD       CLOUDY    30  30 100 SE14      29.88S FOG     WCI  20
APPLETON       CLOUDY    34  30  86 SE15G23   29.85S WCI  24
BENSON         CLOUDY    32  30  93 S15G21    29.86F FOG     WCI  22
ORTONVILLE     PTCLDY    30  28  93 SE14      29.81F FOG     WCI  20
MADISON        PTCLDY    36  34  93 SE17      29.82F
WILLMAR        CLOUDY    34  30  86 SE16      29.90F FOG     WCI  23
$$
MNZ033>034-036-042>043-049>051-058-059-281400-
   Central Minnesota

CITY           SKY/WX    TMP DP  RH WIND       PRES   REMARKS
ST CLOUD       CLOUDY    30  27  88 SE15      29.94F FOG     WCI  19
SAUK CENTRE    CLOUDY    31  30  96 SE15      29.90S FOG     WCI  20
PAYNESVILLE    CLOUDY    28  28 100 E15       29.91F FOG     WCI  17
AITKIN         CLOUDY    30  25  80 SE12      29.93F HAZE    WCI  21
PINE RIVER     CLOUDY    28  28 100 SE12      29.94S FOG     WCI  18
BRAINERD       CLOUDY    29  27  92 S9        29.92F FOG     WCI  20
STAPLES        CLOUDY    28  28 100 SE8       29.89S FOG     WCI  20
LONG PRAIRIE   CLOUDY    30  30 100 SE14      29.90S FOG     WCI  20
LITTLE FALLS   CLOUDY    30  28  93 SE12      29.93S FOG     WCI  21
LITCHFIELD     CLOUDY    32  32 100 SE12G18   29.93F FOG     WCI  23
BUFFALO        CLOUDY    30  27  90 SE9       29.97F WCI  22
MAPLE LAKE     CLOUDY    31  30  94 SE10      29.96F WCI  23
$$
MNZ037-044-045-052-053-281400-
   East Central Minnesota

CITY           SKY/WX    TMP DP  RH WIND       PRES   REMARKS
PRINCETON      CLOUDY    30  27  86 SE8G17    29.97F WCI  23
MORA           CLOUDY    27  25  93 SE8G16    30.00F WCI  18
CAMBRIDGE      CLOUDY    30  23  74 SE9G17    29.97F WCI  22
RUSH CITY      CLOUDY    27  24  89 SE10      30.00F WCI  17
MOOSE LAKE     CLOUDY    27  23  86 SE6       29.98F WCI  20
HINCKLEY       CLOUDY    28  27  93 SE8       29.99F WCI  20
CLOQUET        CLOUDY    23  21  93 SE7       29.98F WCI  15
MCGREGOR       CLOUDY    28  27  93 SE9       29.96S WCI  20
$$
MNZ071>073-080-081-089-090-097-098-281400-
   Southwest Minnesota

CITY           SKY/WX    TMP DP  RH WIND       PRES   REMARKS
MONTEVIDEO     CLOUDY    32  32 100 S13G18    29.86F WCI  22
GRANITE FALLS  CLOUDY    32  31  94 SE17G24   29.87F WCI  21
CANBY          MOCLDY    32  31  95 SE8       29.82F FOG     WCI  25
MARSHALL       MOCLDY    32  27  80 S16       29.85S WCI  21
REDWOOD FALLS  CLOUDY    33  30  88 SE21      29.90F FOG     WCI  21
OLIVIA         CLOUDY    30  30 100 S16G24    29.89F FOG     WCI  19
PIPESTONE      MOCLDY    32  30  93 S18       29.80F WCI  20
WINDOM         CLOUDY    30  30 100 SE16G22   29.89R FOG     WCI  19
WORTHINGTON    CLOUDY    30  27  86 S14G23    29.87F WCI  20
JACKSON        CLOUDY    32  30  93 S16G25    29.90F FOG     WCI  21
TRACY          CLOUDY    32  31  96 S17G26    29.84F FOG     WCI  21
SLAYTON        PTCLDY    31  30  96 SE16      29.84F FOG     WCI  20
$$
MNZ065>067-074>077-082>085-091>093-281400-
   South Central Minnesota

CITY           SKY/WX    TMP DP  RH WIND       PRES   REMARKS
MANKATO        CLOUDY    30  25  80 S20G25    29.96F WCI  18
NEW ULM        CLOUDY    30  30 100 S22       29.93F FOG     WCI  17
ST JAMES       CLOUDY    32  30  93 SE22      29.94F FOG     WCI  19
FAIRMONT       CLOUDY    30  27  86 SE21G30   29.93F WCI  17
GLENCOE        CLOUDY    32  31  96 SE13G18   29.96S FOG     WCI  22
FARIBAULT      CLOUDY    28  27  93 SE14      30.00F FOG     WCI  17
OWATONNA       CLOUDY    28  27  93 SE14G20   29.99F FOG     WCI  17
WASECA         CLOUDY    30  28  93 SE15G21   30.00F FOG     WCI  19
ALBERT LEA     LGT SNOW  27  27 100 SE18G26   29.98F VSB 1   WCI  13
$$
MNZ078>079-086>088-094>096-281400-
   Southeast Minnesota

CITY           SKY/WX    TMP DP  RH WIND       PRES   REMARKS
ROCHESTER      CLOUDY    24  23  96 S13       30.04F FOG     WCI  12
RED WING       CLOUDY    27  23  86 SE12      30.05F WCI  16
STANTON        CLOUDY    28  25  86 S13G20    30.01F WCI  18
DODGE CENTER   FOG       27  27 100 SE21      30.01F VSB 3/4 WCI  13
WINONA         CLOUDY    28  23  80 SE9       30.11F FOG     WCI  20
AUSTIN         CLOUDY    27  25  93 S14G22    30.02F FOG     WCI  15
PRESTON        CLOUDY    23  22  96 SE14      30.06F FOG     WCI  10
$$
ABBREVIATIONS USED IN REMARKS
   TC - TEMPERATURES IN CELSIUS
  WCI - WIND CHILL INDEX
   HX - HEAT INDEX
  VSB - VISIBILITY
$$


USA.gov is the U.S. government's official web portal to all federal, state and local government web resources and services.